Location: Zagreb
(45.8000°N, 16.0000°E)
Time: 14:13:06
(UTC+02:00)

Tiros 1 despin weight - Pass Details

Date: 12 August 2022
Orbit: 590 x 639 km, 48.2° (Epoch: 23 September)

Event Time Altitude Azimuth Distance (km) Brightness Sun altitude
Rises 11:41:21 0° 197° (SSW) 2,857 ? 54.9°
Reaches altitude 10° 11:44:20 10° 177° (S) 1,947 ? 55.2°
Maximum altitude 11:47:10 17° 137° (SE) 1,555 ? 55.4°
Drops below altitude 10° 11:49:58 10° 98° (E) 1,936 ? 55.7°
Sets 11:52:56 0° 77° (ENE) 2,834 ? 56.0°
